Location: Delia
(51.6321°N, 112.3740°W)
Time: 21:26:21
(UTC+00:00)

Envisat - Pass Details

Date: 06 December 2021
Orbit: 764 x 766 km, 98.2° (Epoch: 26 January)

Event Time Altitude Azimuth Distance (km) Brightness Sun altitude
Rises 00:33:49 0° 200° (SSW) 3,222 6.9 -10.6°
Reaches altitude 10° 00:36:30 10° 213° (SSW) 2,301 6.4 -11.0°
Maximum altitude 00:40:40 25° 268° (W) 1,506 5.4 -11.6°
Drops below altitude 10° 00:44:52 10° 324° (NW) 2,316 5.7 -12.2°
Sets 00:47:35 0° 337° (NNW) 3,247 6.3 -12.6°
